Regional Weather Roundup
Issued by NWS

Current Version | Previous Version | Text Only | Print | Product List | Glossary On
Versions: 1 2 3 4 5 6 7 8 9 10 11 12 13 14 15 16 17 18 19 20 21 22 23 24 25 26 27 28 29 30 31 32 33 34 35 36 37 38 39 40 41 42 43 44 45 46 47 48 49 50
000
ASCA42 TJSJ 190010
RWRPR
PUERTO RICO/U.S. VIRGIN ISLANDS HOURLY WEATHER ROUNDUP
NATIONAL WEATHER SERVICE SAN JUAN PR
800 PM AST FRI SEP 18 2020

PRZ001>002-007>008-010-190100-
PUERTO RICO

CITY           SKY/WX    TMP DP  RH WIND       PRES   REMARKS
SAN JUAN LMM   PTCLDY    84  75  74 N7        29.85R HX  92
AGUADILLA      PTCLDY    82  75  78 NE10      29.87R
CEIBA          PTCLDY    81  73  78 N5        29.86R
$$

VIZ001>002-190100-
U.S. VIRGIN ISLANDS

CITY           SKY/WX    TMP DP  RH WIND       PRES   REMARKS
CHARLOTTE AMA  PTCLDY    84  73  70 N7        29.84R HX  91
CHRISTIANSTED  CLEAR     81  75  83 N3        29.85R
$$

HOURLY WEATHER ROUNDUP FOR THE NEWS MEDIA

CITY           SKY/WX    TMP DP  RH WIND       PRES   REMARKS
ORLANDO        CLEAR     87  70  56 NW8       29.88R HX  92
NEW YORK       PTCLDY    64  42  44 N16       30.04R
NEWARK         PTCLDY    67  42  40 N17G26    30.04R
CHICAGO        PTCLDY    56  37  49 NE13      30.35S
HARTFORD       PTCLDY    58  47  66 N5        30.00R
BOSTON         PTCLDY    57  46  66 N7        30.03R
DALLAS         PTCLDY    83  61  47 NE8       30.06R
PHILADELPHIA   MOCLDY    67  42  40 N20G25    30.05R
LOS ANGELES    MOSUNNY   78  62  57 W14       29.83F
WASHINGTON DC  PTCLDY    67  49  52 N6        30.06R


USA.gov is the U.S. government's official web portal to all federal, state and local government web resources and services.